Regional Weather Roundup
Issued by NWS

Home | Current Version | Previous Version | Graphics & Text | Print | Product List | Glossary On
Versions: 1 2 3 4 5 6 7 8 9 10 11 12 13 14 15 16 17 18 19 20 21 22 23 24 25 26 27 28 29 30 31 32 33 34 35 36 37 38 39 40 41 42 43 44 45 46 47 48 49 50
000
ASUS43 KLOT 271904
RWRIL

ILLINOIS REGIONAL WEATHER ROUNDUP
NATIONAL WEATHER SERVICE CHICAGO/ROMEOVILLE IL
200 PM CDT THU JUL 27 2017

NOTE: "FAIR" INDICATES FEW OR NO CLOUDS BELOW 12,000 FEET WITH NO
SIGNIFICANT WEATHER AND/OR OBSTRUCTIONS TO VISIBILITY.

* THESE STATIONS ARE NOT UNDER NWS QUALITY CONTROL. THEY ALSO MAY NOT
  REPORT WEATHER SUCH AS PRECIPITATION OR FOG.

ILZ001-002-007-009-015-016-024-272000-
NORTHWEST ILLINOIS

CITY           SKY/WX    TMP DP  RH WIND       PRES   REMARKS
MOLINE         PTSUNNY   83  70  64 N9        29.94F HX  87
STERLING*      PTSUNNY   81  72  74 E9        29.95F HX  85
SAVANNA*       MOSUNNY   83  69  64 NE12      29.96F HX  86
$$

ILZ003-004-008-010-011-017-018-272000-
NORTH CENTRAL ILLINOIS

CITY           SKY/WX    TMP DP  RH WIND       PRES   REMARKS
ROCKFORD       PTSUNNY   84  65  52 E12G21    29.97S HX  86
FREEPORT*      PTSUNNY   80  69  68 E9        29.99S HX  83
ROCHELLE*      CLOUDY    78  70  76 NE9       29.96F HX  81
DE KALB*       CLOUDY    78  70  75 NE5G16    29.97S HX  81
PERU*          CLOUDY    81  71  71 NE12      29.93F HX  84
$$

ILZ005-006-012>014-019>023-272000-
NORTHEAST ILLINOIS

CITY           SKY/WX    TMP DP  RH WIND       PRES   REMARKS
CHICAGO-OHARE  PTSUNNY   80  68  66 NE13      29.94F HX  83
CHICAGO-MIDWAY MOSUNNY   81  70  69 N13       29.93F HX  84
AURORA         CLOUDY    82  71  69 N14       29.95S HX  86
LANSING*       CLOUDY    74  68  80 N3        29.94S
JOLIET*        CLOUDY    82  73  72 NE10      29.92S HX  88
WAUKEGAN       SUNNY     74  65  73 N12G23    29.96F
DUPAGE AIRPORT CLOUDY    80  70  71 NE10      29.94S HX  83
KANKAKEE*      CLOUDY    79  74  83 N6        29.92F HX  83
WHEELING       SUNNY     78  70  76 N14       29.97S HX  80
MORRIS*        CLOUDY    82  72  72 N5        29.91F HX  87
ROMEOVILLE*    MOSUNNY   82  68  62 N14       29.92F HX  85
NORTHERLY ISL    N/A     75  67  76 N15         N/A
$$

LMZ740>746-272000-
SOUTHERN LAKE MICHIGAN

STATION/POSITION SKY/WX   TEMP    WIND        PRES    VSBY  WAVE
                          AIR SEA DIR/SP/G                  HT/PER
                          (F)     (DEG/KT/KT) (MB)    (MI)  (FT/S)
SOUTHERN BUOY              70 71   10/ 12/ 14 1014.3          2/ 3
WILMETTE HARBOR            71 72  350/ 14/ 17   N/A           3/ 3
HARRISON CRIB              72     360/ 19/ 20   N/A
BURNHAM HARBOR             75                   N/A
CALUMET HARBOR             73     350/ 15/ 18 1013.5F
BURNS HARBOR               73     360/ 11/ 14 1013.9F
MICHIGAN CITY              74     360/ 14/ 15   N/A
MICHIGAN CITY 6N           73 75   10/ 14/ 17   N/A           2/ 2
ST. JOSEPH                 73 74   30/ 12/ 16 1012.9F         2/ 2
$$

ILZ025>027-034>036-040-047-049-050-058-095>099-272000-
WEST-CENTRAL ILLINOIS

CITY           SKY/WX    TMP DP  RH WIND       PRES   REMARKS
QUINCY         CLOUDY    82  74  76 NE9       29.93S HX  88
GALESBURG*     PTSUNNY   81  73  76 N8        29.96S HX  85
MACOMB*        CLOUDY    80  72  75 N10       29.97S HX  84
JACKSONVILLE*  RAIN      75  73  92 CALM      29.92F
PITTSFIELD*    CLOUDY    80  76  85 N7        29.93F HX  86
$$

ILZ028>032-037-038-041>044-048-051>054-059>061-272000-
CENTRAL ILLINOIS

CITY           SKY/WX    TMP DP  RH WIND       PRES   REMARKS
PONTIAC        PTSUNNY   81  76  85 N5        29.93F HX  87
BLOOMINGTON    PTSUNNY   81  72  74 N12       29.93F HX  85
DECATUR        CLOUDY    80  74  81 SW8       29.91F HX  85
PEORIA         CLOUDY    84  74  71 VRB6      29.92F HX  91
LACON*         CLOUDY    79  73  80 CALM      29.93S HX  83
LINCOLN*       PTSUNNY   83  76  79 N7        29.91S HX  91
SPRINGFIELD    CLOUDY    83  77  82 W6        29.91F HX  92
TAYLORVILLE    CLOUDY    77  75  92 W9        29.92F
$$

ILZ033-039-045-046-055>057-062-063-272000-
EAST-CENTRAL ILLINOIS

CITY           SKY/WX    TMP DP  RH WIND       PRES   REMARKS
CHAMPAIGN      CLOUDY    80  74  81 CALM      29.91F HX  85
RANTOUL*       PTSUNNY   84  75  74 N5        29.91F HX  92
MATTOON        LGT RAIN  78  74  87 W7        29.92F HX  81
PARIS*         CLOUDY    77  74  90 SW8       29.93F
$$

ILZ079-100>102-272000-
SOUTHWEST ILLINOIS

CITY           SKY/WX    TMP DP  RH WIND       PRES   REMARKS
ALTON          CLOUDY    79  75  89 SW10      29.93F HX  82
CAHOKIA*       CLOUDY    83  74  74 SW7       29.93S HX  89
SPARTA*        CLOUDY    81  74  77 SW7       29.95F HX  86
$$

ILZ064>066-069>071-074>076-080>082-084>086-088>090-092>094-272000-
SOUTH-CENTRAL ILLINOIS

CITY           SKY/WX    TMP DP  RH WIND       PRES   REMARKS
CARBONDALE     CLOUDY    84  77  79 VRB3      29.93F HX  94
CAIRO*         CLOUDY    86  78  77 SW9       29.93F HX  97
EFFINGHAM*     CLOUDY    82  74  76 SW9       29.94F HX  89
MARION         CLOUDY    84  81  89 NW7       29.96F HX  98
MT. VERNON     CLOUDY    82  76  81 VRB3      29.94F HX  89
CENTRALIA*     PTSUNNY   82  76  83 SW8       29.93F HX  89
SALEM*         CLOUDY    83  75  76 W8        29.94F HX  90
METROPOLIS*    PTSUNNY   89  77  66 W9        29.93F HX 101
$$

ILZ067-068-072-073-078-083-087-091-272000-
SOUTHEAST ILLINOIS

CITY           SKY/WX    TMP DP  RH WIND       PRES   REMARKS
LAWRENCEVILLE  CLOUDY    82  75  79 W6        29.93F HX  89
FLORA*         CLOUDY    83  76  79 SW6       29.94F HX  92
FAIRFIELD*     CLOUDY    81  76  83 CALM      29.93F HX  88
HARRISBURG*    CLOUDY    83  76  79 NW6       29.95F HX  92
ROBINSON*      CLOUDY    82  74  76 W12G17    29.93F HX  88
CARMI*         CLOUDY    82  77  86 NW8       29.94F HX  89
$$

ABBREVIATIONS USED IN REMARKS
   TC - TEMPERATURE IN CELSIUS
  WCI - WIND CHILL INDEX
   HX - HEAT INDEX
  VSB - VISIBILITY
$$





USA.gov is the U.S. government's official web portal to all federal, state and local government web resources and services.